Wind_Speed
17 16 16 16 17 17 16 16 18 17 16 16 15 15 14 15 16 16 16 17 17 18 18 20 18 17 16 16 14 13 10 10 6 7 14 13 17 18 16 18 18 18 20
16 16 16 15 16 17 16 16 17 16 16 15 15 14 14 13 14 13 14 14 15 17 17 20 18 18 17 13 14 11 10 8 7 8 7 13 15 16 16 17 18 19 19
16 16 15 15 16 15 15 16 16 15 15 14 13 13 14 13 11 10 9 8 8 11 12 14 16 15 15 14 14 12 12 11 10 9 9 11 12 13 16 15 16 19 18
15 15 15 15 16 16 15 15 15 15 14 13 13 12 13 12 10 7 6 6 3 6 9 12 12 13 14 12 14 14 12 12 12 8 10 11 13 15 15 17 15 16 16
16 17 17 16 16 15 16 16 15 14 14 13 12 12 11 12 12 9 9 10 9 9 6 2 5 8 9 13 14 15 14 13 11 13 13 13 13 10 12 13 14 14 12
18 18 18 17 17 17 16 16 15 15 15 13 13 12 11 12 11 15 13 13 11 11 11 6 5 4 6 14 15 16 15 16 14 13 13 13 13 13 12 14 13 12 10
20 20 20 19 17 16 16 15 16 17 15 14 13 12 12 10 11 12 14 12 13 14 13 13 12 11 12 11 10 9 11 13 10 11 12 13 12 12 11 12 12 13 8
21 20 20 21 20 18 18 17 15 15 15 14 13 14 13 12 12 11 12 9 11 12 13 13 15 16 15 12 9 6 6 5 6 7 6 6 7 9 10 10 10 8 6
23 23 21 20 21 20 19 20 19 17 16 15 15 15 14 12 16 15 13 9 10 11 11 12 12 12 14 13 9 7 7 7 7 9 9 9 10 11 10 9 10 11 11
22 23 23 22 22 21 22 22 20 20 19 19 18 17 16 13 15 15 14 11 11 11 11 11 16 13 13 11 7 7 7 8 9 6 9 10 9 9 12 10 10 12 13
22 22 22 24 23 21 20 19 18 19 18 18 17 16 16 16 15 17 15 11 11 11 12 12 12 15 12 10 8 6 8 7 9 9 9 10 11 11 11 10 9 10 10
18 18 19 20 21 20 21 20 18 19 19 19 19 17 16 15 16 18 16 14 11 9 11 12 11 13 14 11 8 10 10 10 9 11 11 12 12 13 12 9 8 7 4
13 17 18 17 16 13 9 6 8 15 19 20 20 20 17 18 15 17 16 15 15 10 9 10 13 12 15 12 11 9 8 9 10 11 12 12 12 10 9 9 8 8 5
12 9 15 15 19 16 14 6 18 47 28 23 20 20 19 18 18 15 12 13 14 14 12 7 10 13 13 10 10 10 10 10 10 12 11 10 10 9 11 11 11 9 9
10 10 12 16 18 18 26 30 27 46 30 22 23 21 21 20 22 19 16 15 15 16 16 14 13 14 14 12 11 11 12 10 10 9 10 10 11 12 12 11 10 9 10
14 15 18 15 22 19 15 13 11 19 22 28 24 18 17 21 22 20 20 18 18 17 17 15 16 16 16 14 13 12 11 13 11 11 11 12 11 11 11 11 10 10 9
8 6 8 11 12 12 7 6 7 15 25 20 17 19 20 19 23 19 21 23 23 21 18 18 17 17 17 16 14 13 13 13 14 15 14 10 10 13 11 12 11 10 10
5 5 6 6 5 2 3 8 12 13 12 12 18 23 25 25 26 22 27 27 24 21 20 18 18 18 16 15 15 15 15 13 15 14 14 15 15 13 13 14 13 13 14
3 4 3 3 2 2 4 7 7 8 11 11 7 13 22 28 32 30 31 33 25 22 20 18 16 17 16 16 16 16 17 18 18 18 18 17 15 15 15 15 15 14 13
1 3 7 3 2 3 3 4 5 7 8 8 8 10 15 15 20 23 28 24 22 20 18 19 17 15 14 13 13 13 15 17 19 19 18 18 17 16 16 16 16 15 17
6 3 4 3 2 2 2 4 4 4 7 7 4 8 10 11 12 16 19 20 14 12 10 16 12 8 9 10 10 12 14 16 17 17 19 18 17 17 16 15 15 16 16
2 3 3 3 3 3 2 2 2 4 4 2 3 5 6 12 14 14 15 20 19 15 11 3 4 7 8 9 10 11 13 15 18 17 19 18 18 18 17 16 15 15 16
4 3 3 4 2 1 3 5 5 5 5 4 4 4 9 8 11 17 21 20 19 21 22 20 17 18 17 18 18 17 17 18 18 18 20 19 18 18 18 17 16 16 17
5 7 7 5 4 5 4 3 3 5 6 8 7 8 10 10 11 13 13 12 15 17 18 20 23 26 25 26 24 23 24 22 18 18 20 20 20 19 19 18 17 17 18
6 7 7 7 6 6 3 2 2 4 4 7 10 10 9 12 12 14 15 16 16 18 20 22 25 29 31 28 27 26 24 22 21 19 17 20 21 19 19 19 19 18 19
9 9 8 7 7 7 8 6 5 4 0 2 5 8 10 13 13 12 14 15 18 19 21 24 26 28 28 28 31 28 26 23 23 25 18 18 21 21 21 21 20 19 18
Wind_Direction
196 195 196 200 200 197 201 207 211 226 219 219 229 236 232 235 236 236 250 257 244 233 230 215 211 208 210 212 207 208 214 219 212 264 176 177 192 200 198 205 212 217 224
188 188 190 191 192 197 198 204 212 215 219 226 226 226 222 219 229 237 254 252 246 229 223 217 213 209 207 207 207 213 202 222 207 196 209 181 199 201 202 204 210 216 220
181 186 186 187 190 199 200 205 204 210 213 214 220 218 214 216 221 236 250 250 256 238 211 205 214 215 204 211 228 210 223 223 216 220 195 196 196 202 199 203 208 218 220
180 179 182 188 195 196 195 197 196 199 208 209 208 211 211 205 206 206 206 216 249 216 202 206 217 221 216 214 222 230 239 224 213 212 204 192 202 202 197 203 206 210 208
178 178 179 178 180 183 184 187 195 199 201 203 203 205 210 208 209 193 179 181 139 111 116 310 201 226 241 247 239 235 229 232 238 215 212 208 212 205 200 213 197 204 204
178 177 173 172 176 182 186 193 199 202 202 206 203 202 203 212 199 204 194 194 179 167 157 134 75 37 288 259 236 234 226 224 226 230 236 228 220 221 215 224 213 204 202
179 179 177 174 180 188 192 195 200 201 200 200 201 199 201 203 207 196 198 209 214 203 193 186 185 199 211 218 213 219 212 222 221 232 237 233 224 219 217 221 218 223 229
181 184 185 178 180 187 189 192 196 203 203 202 202 199 193 190 186 186 183 198 190 194 196 193 187 187 190 198 197 190 211 212 213 229 236 233 221 199 207 208 196 185 179
186 188 189 193 187 185 193 193 193 196 200 202 203 202 201 196 190 183 181 198 201 183 185 193 194 191 196 194 200 207 219 228 246 225 212 211 203 190 179 181 191 205 218
192 189 190 195 199 197 192 192 199 198 201 200 202 202 202 202 204 203 193 206 203 211 207 206 199 195 196 198 207 222 235 244 236 232 230 228 217 204 197 207 220 221 230
193 191 191 195 197 203 201 198 200 211 207 207 203 204 205 201 203 206 208 206 214 208 220 209 218 209 203 209 213 234 241 236 225 224 224 216 211 207 210 211 219 237 230
202 196 193 202 198 197 198 196 199 202 207 206 204 205 206 211 208 205 205 198 215 222 224 219 207 211 204 206 205 222 230 213 222 216 213 211 204 207 203 201 202 209 233
194 199 192 195 197 191 202 245 253 228 225 222 213 212 207 202 207 214 206 211 214 215 231 234 198 215 207 212 217 226 208 208 221 221 219 215 210 204 178 179 195 193 192
174 189 192 189 196 188 204 209 281 301 257 235 226 226 208 198 201 199 201 222 217 210 218 207 209 207 199 212 209 210 205 214 221 224 219 213 204 191 201 201 202 207 214
189 206 213 200 203 208 197 200 207 251 247 251 239 230 209 198 201 191 189 205 210 212 197 196 198 201 207 209 213 213 205 210 211 216 201 196 198 198 199 201 204 204 219
255 257 250 215 199 198 199 153 197 238 264 244 247 226 223 224 214 205 207 210 209 201 195 205 212 213 216 211 210 215 209 205 201 207 201 202 201 208 214 210 211 213 224
273 256 237 226 215 204 140 134 217 245 243 237 234 234 244 238 228 221 218 215 212 200 211 221 221 215 212 208 208 210 211 214 209 209 203 207 206 209 206 219 218 220 233
298 246 230 217 214 204 153 218 235 259 259 258 250 244 242 247 250 242 219 206 201 203 210 218 217 216 210 205 206 211 214 212 216 220 217 215 214 219 217 223 222 223 217
239 175 171 146 137 238 276 259 249 246 255 270 226 248 244 244 237 237 227 196 189 193 208 215 210 215 209 214 220 223 223 218 216 214 218 220 216 218 220 221 225 229 230
62 108 110 61 37 38 2 308 287 267 255 257 259 265 264 254 226 219 205 192 187 188 199 215 222 222 220 220 221 225 226 226 220 221 225 225 224 221 223 221 230 228 213
94 105 118 121 120 112 270 273 273 294 285 287 289 280 277 225 190 190 183 184 210 193 208 227 220 217 224 230 230 232 235 233 223 223 224 226 227 226 225 227 229 228 235
60 90 134 152 157 144 177 236 240 244 261 240 246 280 253 179 172 168 181 188 196 194 222 231 217 230 247 262 243 234 248 248 235 224 227 227 224 226 229 227 233 236 236
68 63 59 79 69 119 211 210 217 222 226 220 181 186 195 213 210 207 202 207 215 214 218 224 233 248 251 250 247 244 247 244 241 238 235 232 229 227 226 232 235 238 235
40 41 40 29 21 348 344 332 256 229 227 258 237 207 206 209 214 218 210 204 212 219 226 228 230 231 230 231 240 244 240 238 235 237 236 234 232 230 234 236 240 240 236
50 65 65 53 28 41 18 10 298 273 255 258 252 248 212 214 219 205 205 207 214 222 224 229 229 231 232 232 227 227 231 226 224 229 234 232 237 235 235 232 235 235 231
47 46 44 40 32 30 30 28 26 51 91 252 241 234 232 240 246 222 219 218 226 226 229 233 234 235 237 232 228 230 233 233 240 234 224 230 234 235 234 231 232 232 233
Height
752 755 759 762 767 770 773 776 780 783 785 786 788 791 792 793 794 795 795 794 794 795 797 798 799 803 806 808 808 809 810 811 814 812 812 817 822 825 827 831 834 836 838
749 753 756 760 764 767 769 773 776 779 781 783 785 786 787 789 791 791 790 790 789 789 791 794 797 800 803 805 806 807 809 810 812 813 813 815 819 823 824 827 829 830 831
746 750 754 757 760 763 766 769 772 775 777 779 781 782 783 785 787 788 788 788 787 787 789 792 795 798 799 802 803 802 805 809 810 810 811 813 816 817 821 822 824 825 826
744 748 752 755 758 760 764 766 769 772 774 775 777 778 780 782 784 785 785 787 786 786 788 791 792 796 799 800 802 802 803 803 807 810 811 813 814 814 816 816 820 822 823
741 744 747 750 753 757 760 764 767 769 771 772 773 775 778 779 780 783 783 784 784 786 787 788 790 793 796 798 800 801 802 803 805 806 808 808 811 813 814 815 816 819 822
737 740 744 747 751 755 758 762 765 767 768 769 771 772 774 775 775 778 781 783 784 786 788 789 792 795 796 797 797 799 799 800 802 801 803 804 806 809 811 811 814 816 818
733 736 740 744 749 753 756 758 761 763 766 767 768 770 772 773 774 775 777 780 782 785 788 788 790 794 797 797 796 796 797 798 800 801 801 802 804 806 809 811 812 815 815
731 735 738 739 742 746 750 754 758 761 763 764 766 768 769 770 771 774 776 777 779 783 785 788 790 791 793 795 796 797 798 798 799 800 800 801 802 803 805 807 810 813 815
724 729 734 738 738 740 746 749 751 755 759 762 765 767 768 768 766 768 773 776 776 779 783 786 789 791 792 794 796 796 797 798 797 797 798 800 801 802 805 807 809 809 808
721 724 729 735 738 739 739 743 749 751 754 756 760 762 764 767 767 768 768 772 774 776 779 783 785 787 789 791 794 794 795 795 796 797 797 799 799 800 802 804 805 805 805
716 720 725 728 733 738 741 744 746 752 752 755 757 759 762 763 763 765 768 770 770 772 773 777 782 783 785 787 789 792 793 794 794 795 796 797 798 800 802 803 805 805 803
716 719 721 725 728 731 737 740 744 748 752 752 754 756 757 761 762 761 762 766 769 771 771 772 775 779 783 784 787 788 790 791 792 793 792 793 794 795 797 801 803 805 806
716 716 716 719 726 732 735 742 751 752 750 751 751 750 751 754 757 762 759 762 765 769 770 771 773 778 781 782 783 785 786 788 789 789 789 790 791 793 795 800 803 805 806
713 714 711 715 722 727 729 726 741 762 755 746 745 746 747 749 752 754 756 762 764 765 766 769 773 777 779 781 781 782 784 785 786 786 786 788 791 793 796 798 800 802 802
713 711 712 715 718 721 722 729 718 742 744 741 743 742 742 744 746 746 750 756 759 762 763 765 770 773 775 777 780 781 782 783 784 784 786 788 790 791 792 796 797 799 800
713 714 714 717 717 715 717 710 711 728 735 736 736 736 738 739 740 742 747 752 754 756 759 760 764 766 769 772 775 778 779 780 782 783 783 784 786 790 792 793 794 795 796
711 711 711 714 719 723 709 710 719 723 726 728 727 729 732 734 736 736 741 746 751 751 753 755 757 760 762 766 768 772 774 777 778 780 781 784 786 787 788 791 792 793 793
708 710 710 712 712 713 709 714 717 716 717 717 719 723 726 729 732 732 736 740 746 746 748 749 752 755 757 760 764 767 770 773 776 778 781 781 781 783 784 786 787 788 788
710 708 708 708 709 710 710 711 713 714 715 718 718 719 720 723 725 727 728 730 735 740 746 749 751 753 755 757 761 763 764 766 768 771 774 775 775 777 777 779 781 785 786
711 711 706 708 709 707 710 713 713 714 715 716 715 716 717 719 718 721 723 728 731 733 739 749 748 749 751 755 757 759 761 763 764 767 769 771 772 772 773 774 777 776 779
709 712 709 710 708 707 711 715 714 712 715 715 713 712 714 716 718 718 723 725 731 733 737 742 745 747 751 755 755 756 759 760 760 762 765 767 768 769 769 770 771 774 774
710 710 709 709 709 708 711 713 711 713 714 713 712 713 714 717 719 721 725 724 728 728 734 739 743 747 752 754 754 756 758 757 757 759 761 763 763 766 767 768 769 770 770
708 708 706 706 706 706 709 710 712 712 712 712 713 715 715 718 718 720 720 723 723 726 730 734 737 741 744 748 751 751 755 755 754 755 757 759 759 761 761 763 764 765 765
709 707 707 709 708 707 708 710 711 711 712 711 710 715 716 718 719 722 720 720 723 726 727 728 731 734 738 744 746 747 751 750 751 751 752 753 754 756 757 757 758 759 761
710 711 710 710 710 711 712 709 710 709 707 709 710 714 715 715 716 716 718 719 720 724 722 723 725 730 734 735 737 739 745 745 744 746 747 749 751 751 752 753 753 754 756
713 712 711 711 711 710 707 706 706 705 706 709 710 713 713 715 714 714 715 715 717 717 720 719 719 723 726 727 730 732 735 736 739 741 741 744 747 747 746 747 748 748 750